Belmar-Farmingdale, NJ

5:00 AM EDT on June 25, 2017 (GMT -0400)
Allaire

Weather History for KBLM - April, 2012

Change the Weather History Date:

Monday, April 9, 2012

  Actual Average Record
Temperature  
Mean Temperature 55 °F -  
Max Temperature 62 °F 55 °F 84 °F (2013)
Min Temperature 48 °F 38 °F 28 °F (2007)
Degree Days  
Heating Degree Days 10    
Growing Degree Days 5 (Base 50)    
Moisture  
Dew Point 24 °F    
Average Humidity 29    
Maximum Humidity 43    
Minimum Humidity 20    
Precipitation  
Precipitation 0.00 in - - ()
Sea Level Pressure  
Sea Level Pressure 29.73 in    
Wind  
Wind Speed 18 mph (West)    
Max Wind Speed 30 mph    
Max Gust Speed 46 mph    
Visibility 10 miles    
Events      
Averages and records for this station are not official NWS values.
T = Trace of Precipitation, MM = Missing Value Source: NWS Daily Summary

Daily Weather History Graph

Daily Weather History Graph

Search for Another Location

Airport or City:

Trip Planner

Search our weather history database for the weather conditions in past years. The results will help you decide how hot, cold, wet, or windy it might be!

Date:

Astronomy

Apr. 09, 2012 Rise Set
Actual Time 6:26 AM EDT 7:29 PM EDT
Civil Twilight 5:59 AM EDT 7:57 PM EDT
Nautical Twilight 5:26 AM EDT 8:30 PM EDT
Astronomical Twilight 4:51 AM EDT 9:05 PM EDT
Moon 11:22 PM EDT (4/9) 8:11 AM EDT (4/9)
Length of Visible Light 13h 58m
Length of Day
13h 02m
Waning Gibbous, 88% of the Moon is Illuminated
Apr 9
Waning Gibbous
Apr 13
Last Quarter
Apr 21
New
Apr 29
First Quarter
May 5
Full

Hourly Weather History & Observations

Time (EDT) Temp. Dew Point Humidity Pressure Visibility Wind Dir Wind Speed Gust Speed Precip Events Conditions
12:15 AM 55.4 °F 26.6 °F 33% 29.77 in 10.0 mi WNW 21.9 mph 40.3 mph N/A   Clear
12:35 AM 55.4 °F 24.8 °F 31% 29.77 in 10.0 mi WNW 17.3 mph 31.1 mph N/A   Clear
12:55 AM 53.6 °F 24.8 °F 33% 29.78 in 10.0 mi WNW 19.6 mph 31.1 mph N/A   Clear
1:15 AM 53.6 °F 24.8 °F 33% 29.78 in 10.0 mi WNW 18.4 mph 29.9 mph N/A   Clear
1:35 AM 53.6 °F 24.8 °F 33% 29.78 in 10.0 mi WNW 19.6 mph 26.5 mph N/A   Clear
1:55 AM 53.6 °F 24.8 °F 33% 29.78 in 10.0 mi WNW 16.1 mph 27.6 mph N/A   Clear
2:15 AM 51.8 °F 26.6 °F 38% 29.78 in 10.0 mi WNW 11.5 mph - N/A   Clear
2:35 AM 51.8 °F 26.6 °F 38% 29.77 in 10.0 mi West 10.4 mph 17.3 mph N/A   Clear
2:55 AM 51.8 °F 26.6 °F 38% 29.78 in 10.0 mi West 8.1 mph - N/A   Scattered Clouds
3:15 AM 51.8 °F 28.4 °F 41% 29.77 in 10.0 mi West 17.3 mph 21.9 mph N/A   Overcast
3:35 AM 53.6 °F 28.4 °F 38% 29.77 in 10.0 mi West 15.0 mph 24.2 mph N/A   Mostly Cloudy
3:55 AM 53.6 °F 26.6 °F 35% 29.77 in 10.0 mi WNW 20.7 mph 34.5 mph N/A   Overcast
4:15 AM 51.8 °F 26.6 °F 38% 29.76 in 10.0 mi West 13.8 mph 23.0 mph N/A   Partly Cloudy
4:35 AM 51.8 °F 26.6 °F 38% 29.75 in 10.0 mi WNW 18.4 mph 26.5 mph N/A   Clear
4:55 AM 51.8 °F 26.6 °F 38% 29.76 in 10.0 mi West 13.8 mph 20.7 mph N/A   Partly Cloudy
5:15 AM 51.8 °F 23.0 °F 33% 29.76 in 10.0 mi WNW 20.7 mph 35.7 mph N/A   Partly Cloudy
5:35 AM 51.8 °F 21.2 °F 30% 29.77 in 10.0 mi WNW 21.9 mph 31.1 mph N/A   Clear
5:55 AM 51.8 °F 21.2 °F 30% 29.77 in 10.0 mi WNW 11.5 mph 26.5 mph N/A   Clear
6:15 AM 50.0 °F 24.8 °F 37% 29.77 in 10.0 mi West 10.4 mph 17.3 mph N/A   Clear
6:35 AM 48.2 °F 24.8 °F 40% 29.77 in 10.0 mi WSW 10.4 mph - N/A   Clear
6:55 AM 48.2 °F 26.6 °F 43% 29.77 in 10.0 mi WSW 11.5 mph - N/A   Clear
7:15 AM 48.2 °F 24.8 °F 40% 29.77 in 10.0 mi WSW 11.5 mph - N/A   Clear
7:35 AM 50.0 °F 23.0 °F 35% 29.77 in 10.0 mi WSW 12.7 mph 18.4 mph N/A   Clear
7:55 AM 51.8 °F 21.2 °F 30% 29.77 in 10.0 mi WSW 19.6 mph 24.2 mph N/A   Clear
8:15 AM 51.8 °F 21.2 °F 30% 29.76 in 10.0 mi WSW 21.9 mph 26.5 mph N/A   Clear
8:55 AM 55.4 °F 21.2 °F 26% 29.74 in 10.0 mi West 17.3 mph 32.2 mph N/A   Clear
9:15 AM 55.4 °F 23.0 °F 29% 29.74 in 10.0 mi West 18.4 mph 40.3 mph N/A   Clear
9:35 AM 55.4 °F 23.0 °F 29% 29.73 in 10.0 mi West 24.2 mph 35.7 mph N/A   Clear
9:55 AM 57.2 °F 23.0 °F 27% 29.73 in 10.0 mi West 18.4 mph 41.4 mph N/A   Clear
10:15 AM 57.2 °F 23.0 °F 27% 29.72 in 10.0 mi West 24.2 mph 38.0 mph N/A   Partly Cloudy
10:35 AM 57.2 °F 23.0 °F 27% 29.71 in 10.0 mi WNW 29.9 mph 41.4 mph N/A   Scattered Clouds
10:55 AM 59.0 °F 24.8 °F 27% 29.71 in 10.0 mi West 29.9 mph 39.1 mph N/A   Scattered Clouds
11:15 AM 59.0 °F 24.8 °F 27% 29.71 in 10.0 mi WNW 28.8 mph 46.0 mph N/A   Scattered Clouds
11:35 AM - - N/A% 29.70 in 10.0 mi West 24.2 mph 44.9 mph N/A   Scattered Clouds
11:55 AM 60.8 °F 23.0 °F 23% 29.70 in 10.0 mi West 25.3 mph 39.1 mph N/A   Scattered Clouds
12:15 PM 60.8 °F 23.0 °F 23% 29.69 in 10.0 mi West 20.7 mph 38.0 mph N/A   Partly Cloudy
12:35 PM 60.8 °F 24.8 °F 25% 29.69 in 10.0 mi WNW 23.0 mph 34.5 mph N/A   Mostly Cloudy
12:55 PM 60.8 °F 24.8 °F 25% 29.69 in 10.0 mi WNW 25.3 mph 38.0 mph N/A   Mostly Cloudy
1:15 PM 62.6 °F 24.8 °F 24% 29.68 in 10.0 mi WNW 23.0 mph 33.4 mph N/A   Mostly Cloudy
1:35 PM 60.8 °F 24.8 °F 25% 29.68 in 10.0 mi WNW 25.3 mph 34.5 mph N/A   Scattered Clouds
1:55 PM 60.8 °F 23.0 °F 23% 29.68 in 10.0 mi WNW 21.9 mph 33.4 mph N/A   Scattered Clouds
2:15 PM 62.6 °F 23.0 °F 22% 29.68 in 10.0 mi West 21.9 mph 32.2 mph N/A   Scattered Clouds
2:35 PM 62.6 °F 23.0 °F 22% 29.68 in 10.0 mi West 23.0 mph 32.2 mph N/A   Mostly Cloudy
2:55 PM 62.6 °F 21.2 °F 20% 29.67 in 10.0 mi West 25.3 mph 31.1 mph N/A   Scattered Clouds
3:15 PM 62.6 °F 21.2 °F 20% 29.67 in 10.0 mi WNW 18.4 mph 28.8 mph N/A   Scattered Clouds
3:35 PM 62.6 °F 23.0 °F 22% 29.67 in 10.0 mi West 20.7 mph 26.5 mph N/A   Scattered Clouds
3:55 PM 60.8 °F 21.2 °F 22% 29.67 in 10.0 mi WNW 21.9 mph 32.2 mph N/A   Scattered Clouds
4:15 PM 62.6 °F 21.2 °F 20% 29.67 in 10.0 mi WNW 23.0 mph 31.1 mph N/A   Partly Cloudy
4:35 PM 62.6 °F 23.0 °F 22% 29.67 in 10.0 mi West 23.0 mph 35.7 mph N/A   Scattered Clouds
5:15 PM 62.6 °F 21.2 °F 20% 29.68 in 10.0 mi West 20.7 mph 32.2 mph N/A   Mostly Cloudy
5:35 PM 60.8 °F 21.2 °F 22% 29.68 in 10.0 mi West 19.6 mph 28.8 mph N/A   Mostly Cloudy
5:55 PM 60.8 °F 21.2 °F 22% 29.69 in 10.0 mi West 17.3 mph 29.9 mph N/A   Mostly Cloudy
6:15 PM 62.6 °F 21.2 °F 20% 29.69 in 10.0 mi WNW 19.6 mph 24.2 mph N/A   Mostly Cloudy
6:35 PM 60.8 °F 21.2 °F 22% 29.69 in 10.0 mi West 17.3 mph 21.9 mph N/A   Mostly Cloudy
6:55 PM 60.8 °F 21.2 °F 22% 29.69 in 10.0 mi West 15.0 mph 24.2 mph N/A   Mostly Cloudy
7:15 PM 60.8 °F 21.2 °F 22% 29.70 in 10.0 mi West 12.7 mph 33.4 mph N/A   Mostly Cloudy
7:35 PM 59.0 °F 21.2 °F 23% 29.70 in 10.0 mi West 15.0 mph 23.0 mph N/A   Partly Cloudy
7:55 PM 57.2 °F 21.2 °F 25% 29.71 in 10.0 mi West 12.7 mph 17.3 mph N/A   Clear
8:15 PM 57.2 °F 21.2 °F 25% 29.71 in 10.0 mi West 8.1 mph - N/A   Clear
8:35 PM 57.2 °F 23.0 °F 27% 29.72 in 10.0 mi West 9.2 mph 17.3 mph N/A   Clear
8:55 PM 57.2 °F 23.0 °F 27% 29.73 in 10.0 mi West 8.1 mph - N/A   Clear
9:35 PM 55.4 °F 23.0 °F 29% 29.73 in 10.0 mi West 8.1 mph - N/A   Clear
9:55 PM 55.4 °F 24.8 °F 31% 29.74 in 10.0 mi West 10.4 mph 17.3 mph N/A   Clear
10:15 PM 55.4 °F 23.0 °F 29% 29.74 in 10.0 mi West 9.2 mph - N/A   Clear
10:35 PM 55.4 °F 23.0 °F 29% 29.74 in 10.0 mi West 8.1 mph - N/A   Clear
10:55 PM 55.4 °F 24.8 °F 31% 29.74 in 10.0 mi West 9.2 mph - N/A   Clear
11:15 PM 55.4 °F 23.0 °F 29% 29.74 in 10.0 mi West 12.7 mph 18.4 mph N/A   Clear
11:35 PM 53.6 °F 24.8 °F 33% 29.74 in 10.0 mi West 10.4 mph 16.1 mph N/A   Clear
11:55 PM 53.6 °F 24.8 °F 33% 29.74 in 10.0 mi West 8.1 mph - N/A   Clear